• MPC Preparation (Info)

  • MPEC 2022-Y31 : 2022 XY1

    The following Minor Planet Electronic Circular may be linked-to from your own Web pages, but must not otherwise be redistributed electronically.

    A form allowing access to any MPEC is at the bottom of this page.


    Read MPEC 2022-Y30 Read MPEC 2022-Y32


    M.P.E.C. 2022-Y31                             Issued 2022 December 18, 11:16 UT
    
         The Minor Planet Electronic Circulars contain information on unusual
             minor planets, routine data on comets and natural satellites,
             and occasional editorial announcements.  They are published
        on behalf of Division F of the International Astronomical Union by the
              Minor Planet Center, Smithsonian Astrophysical Observatory,
                              Cambridge, MA 02138, U.S.A.
    			  
                 Prepared using the Tamkin Foundation Computer Network
    
                                  MPC@CFA.HARVARD.EDU
                URL https://www.minorplanetcenter.net/    ISSN 1523-6714
    
                                    2022 XY1                                 
    
    
    Observations:
         K22X01Y* C2022 12 15.47094907 35 07.172+39 54 17.47         21.35wUEY031F51
         K22X01Y  C2022 12 15.47159507 35 07.011+39 54 17.74         21.45wUEY031F51
         K22X01Y  C2022 12 15.48381707 35 03.832+39 54 22.00         21.10wUEY031F51
         K22X01Y  C2022 12 15.48446907 35 03.633+39 54 22.48         21.21wUEY031F51
         K22X01Y  C2022 12 15.49809707 35 00.085+39 54 26.97         21.32wUEY031F51
         K22X01Y  C2022 12 15.51094307 34 56.733+39 54 31.52         21.17wUEY031F51
         K22X01Y  C2022 12 15.51158807 34 56.568+39 54 31.77         20.97wUEY031F51
         K22X01Y  C2022 12 15.63311207 34 24.934+39 55 10.66         20.86GVEY031F52
         K22X01Y  C2022 12 15.63374207 34 24.779+39 55 10.74         20.99GVEY031F52
         K22X01Y  C2022 12 15.63437207 34 24.616+39 55 11.04         20.99GVEY031F52
         K22X01Y  C2022 12 15.63500307 34 24.452+39 55 11.21         20.91GVEY031F52
         K22X01Y KC2022 12 16.40969 07 31 09.04 +39 59 11.0          20.8 VqEY031H36
         K22X01Y KC2022 12 16.42641 07 31 04.82 +39 59 15.3          20.9 VqEY031H36
         K22X01Y KC2022 12 16.44322 07 31 00.40 +39 59 20.0          21.3 VqEY031H36
         K22X01Y KC2022 12 17.30378607 27 25.75 +40 03 08.2          20.6 GXEY031858
         K22X01Y KC2022 12 17.31847407 27 21.96 +40 03 12.4          21.2 GXEY031858
         K22X01Y 1C2022 12 18.03546 07 24 23.48 +40 05 46.0          20.4 VXEY031033
         K22X01Y 1C2022 12 18.03731 07 24 23.03 +40 05 46.7          20.3 VXEY031033
         K22X01Y 1C2022 12 18.03915 07 24 22.54 +40 05 46.7          20.5 VXEY031033
    
    Observer details:
    033 Karl Schwarzschild Observatory, Tautenburg.  Observers S. Melnikov, C.
        Hoegner, F. Ludwig, B. Stecklum.  Measurer B. Stecklum.  1.34-m f/3
        Schmidt + CCD.
    858 Tebbutt Observatory, Edgewood.  Observer F. B. Zoltowski.  0.51-m f/8.1
        Schmidt-Cassegrain + CCD.
    F51 Pan-STARRS 1, Haleakala.  Observers J. Bulger, T. Lowe, A. Schultz, I.
        Smith.  Measurers K. Chambers, S. Chastel, T. de Boer, J. Fairlamb, H.
        Gao, M. Huber, C.-C. Lin, E. Magnier, Y. Ramanjooloo, R. Wainscoat, R.
        Weryk.  1.8-m Ritchey-Chretien + CCD.
    F52 Pan-STARRS 2, Haleakala.  Observers J. Bulger, K. Chambers, T. Dukes, T.
        Lowe, A. Schultz, I. Smith.  Measurers S. Chastel, J. Fairlamb, M. Huber,
        Y. Ramanjooloo, R. Wainscoat, R. Weryk.  1.8-m Ritchey-Chretien + CCD.
    H36 Sandlot Observatory, Scranton.  Observer G. Hug.  0.56-m f/4.8 .56 meter
        reflector + CCD.
    
    Orbital elements:
    2022 XY1                                                 Earth MOID = 0.0846 AU
    Epoch 2023 Feb. 25.0 TT = JDT 2460000.5                 Veres                   
    M  39.98736              (2000.0)            P               Q                  
    n   0.25294473     Peri.  317.61408     +0.88212254     +0.46995134             
    a   2.4761995      Node    14.45173     -0.39087440     +0.76793149             
    e   0.7920626      Incl.    7.29996     -0.26282509     +0.43523208             
    P   3.90           H   20.16          G   0.15           U   9                  
    Residuals in seconds of arc
    221215 F51  0.0   0.0     221215 F52  0.0   0.0     221217 858  0.8+  0.4-
    221215 F51  0.1+  0.0     221215 F52  0.1+  0.1-    221217 858  0.3+  0.0
    221215 F51  0.2+  0.1-    221215 F52  0.1+  0.0     221218 033  0.2-  0.3-
    221215 F51  0.2-  0.2+    221215 F52  0.0   0.0     221218 033  0.0   0.1+
    221215 F51  0.1-  0.1-    221216 H36  0.4-  0.4+    221218 033  0.3-  0.3-
    221215 F51  0.1-  0.0     221216 H36  0.5+  0.1+
    221215 F51  0.0   0.0     221216 H36  0.6-  0.4+
    
    Ephemeris:
    2022 XY1                 a,e,i = 2.48, 0.79, 7                   q = 0.5149
    Date    TT    R. A. (2000) Decl.     Delta      r    Elong.  Phase     V
    2022 11 18    09 22 34.8 +31 58 50   0.5065  1.1999   101.9    53.7    21.0
    ...
    2022 12 03    08 28 11.1 +37 28 17   0.5550  1.3978   128.0    33.8    21.0
    ...
    2022 12 11    07 54 15.7 +39 18 53   0.5959  1.4987   141.7    24.0    21.0
    ...
    2022 12 17    07 28 41.4 +40 01 52   0.6368  1.5722   151.1    17.6    21.1
    2022 12 18    07 24 32.5 +40 05 42   0.6446  1.5843   152.6    16.6    21.1
    2022 12 19    07 20 26.5 +40 08 36   0.6526  1.5963   154.0    15.7    21.1
    ...
    2022 12 25    06 57 14.6 +40 08 25   0.7069  1.6675   160.8    11.2    21.2
    ...
    2023 01 02    06 31 15.0 +39 31 16   0.7955  1.7597   163.1     9.4    21.5
    ...
    2023 01 17    05 59 41.4 +37 29 32   1.0072  1.9248   150.4    14.6    22.4
    
    M. P. C. Staff               (C) Copyright 2022 MPC           M.P.E.C. 2022-Y31
    


    Read MPEC 2022-Y30 Read MPEC 2022-Y32


    MPEC number:

    Enter an MPEC number in one of the following forms:

    • 1997-B01 (the full form)
    • J97B01 (the packed version of the full form)
    • B01 (the abbreviated form)